Winnemucca, NV

4:03 PM PDT on October 18, 2017 (GMT -0700)
Winnemucca Municipal

Weather History for KWMC - November, 2012

Change the Weather History Date:

Wednesday, November 7, 2012

  Actual Average Record
Temperature  
Mean Temperature 50 °F 40 °F  
Max Temperature 72 °F 56 °F 77 °F (1976)
Min Temperature 28 °F 24 °F 4 °F (1990)
Degree Days  
Heating Degree Days 15 25  
Month to date heating degree days 131 168  
Since 1 July heating degree days 670 893  
Cooling Degree Days 0 0  
Month to date cooling degree days 0 0  
Year to date cooling degree days 681 541  
Moisture  
Dew Point 23 °F    
Average Humidity 45    
Maximum Humidity 75    
Minimum Humidity 15    
Precipitation  
Precipitation 0.00 in 0.03 in 0.56 in (1960)
Month to date precipitation T 0.19  
Year to date precipitation 3.94 6.66  
Snow  
Snow 0.00 in 0.10 in 1.00 in (1879)
Month to date snowfall 0.0 0.3  
Since 1 July snowfall 1.3 0.8  
Since 1 September snowfall 1.3 0.8  
Snow Depth 0.00 in    
Sea Level Pressure  
Sea Level Pressure 29.95 in    
Wind  
Wind Speed 7 mph (South)    
Max Wind Speed 21 mph    
Max Gust Speed 26 mph    
Visibility 10 miles    
Events      
T = Trace of Precipitation, MM = Missing Value Source: NWS Daily Summary

Daily Weather History Graph

Daily Weather History Graph

Search for Another Location

Airport or City:

Trip Planner

Search our weather history database for the weather conditions in past years. The results will help you decide how hot, cold, wet, or windy it might be!

Date:

Astronomy

Nov. 07, 2012 Rise Set
Actual Time 6:29 AM PST 4:39 PM PST
Civil Twilight 6:00 AM PST 5:08 PM PST
Nautical Twilight 5:27 AM PST 5:41 PM PST
Astronomical Twilight 4:55 AM PST 6:13 PM PST
Moon No Moon Rise 12:54 PM PST (11/7)
Length of Visible Light 11h 07m
Length of Day
10h 10m
Last Quarter, 42% of the Moon is Illuminated
Nov 7
Last Quarter
Nov 13
New
Nov 20
First Quarter
Nov 28
Full
Dec 6
Last Quarter

Hourly Weather History & Observations

Time (PST) Temp. Windchill Dew Point Humidity Pressure Visibility Wind Dir Wind Speed Gust Speed Precip Events Conditions
12:56 AM 37.0 °F 34.5 °F 25.0 °F 62% 30.09 in 10.0 mi West 3.5 mph - N/A   Clear
1:56 AM 39.0 °F - 24.1 °F 55% 30.07 in 10.0 mi Calm Calm - N/A   Clear
2:56 AM 36.0 °F - 24.1 °F 62% 30.06 in 10.0 mi Calm Calm - N/A   Clear
3:56 AM 28.9 °F 22.8 °F 21.0 °F 72% 30.07 in 10.0 mi SE 5.8 mph - N/A   Clear
4:56 AM 28.9 °F 21.1 °F 21.9 °F 75% 30.10 in 10.0 mi SE 8.1 mph - N/A   Clear
5:56 AM 35.1 °F - 24.1 °F 64% 30.10 in 10.0 mi Calm Calm - N/A   Clear
6:56 AM 33.1 °F 30.0 °F 24.1 °F 70% 30.11 in 10.0 mi ENE 3.5 mph - N/A   Clear
7:56 AM 43.0 °F - 27.0 °F 53% 30.08 in 10.0 mi Calm Calm - N/A   Clear
8:56 AM 55.9 °F - 28.9 °F 36% 30.05 in 10.0 mi Calm Calm - N/A   Clear
9:56 AM 64.9 °F - 28.0 °F 25% 30.01 in 10.0 mi South 10.4 mph - N/A   Clear
10:56 AM 70.0 °F - 23.0 °F 17% 29.98 in 10.0 mi SW 17.3 mph 23.0 mph N/A   Clear
11:56 AM 71.1 °F - 24.1 °F 17% 29.95 in 10.0 mi SSW 16.1 mph 24.2 mph N/A   Clear
12:56 PM 72.0 °F - 21.9 °F 15% 29.91 in 10.0 mi SW 16.1 mph 23.0 mph N/A   Clear
1:56 PM 71.1 °F - 21.9 °F 16% 29.89 in 10.0 mi SW 10.4 mph 24.2 mph N/A   Clear
2:56 PM 70.0 °F - 21.0 °F 16% 29.88 in 10.0 mi SW 17.3 mph 23.0 mph N/A   Clear
3:56 PM 66.9 °F - 21.9 °F 18% 29.89 in 10.0 mi SSW 10.4 mph - N/A   Clear
4:56 PM 59.0 °F - 21.0 °F 23% 29.90 in 10.0 mi West 9.2 mph - N/A   Clear
5:56 PM 50.0 °F - 21.0 °F 32% 29.90 in 10.0 mi SW 8.1 mph - N/A   Clear
6:56 PM 48.0 °F - 21.9 °F 36% 29.90 in 10.0 mi South 4.6 mph - N/A   Clear
7:56 PM 48.9 °F - 21.9 °F 35% 29.86 in 10.0 mi SE 4.6 mph - N/A   Clear
8:56 PM 46.0 °F 43.1 °F 21.9 °F 39% 29.83 in 10.0 mi SSE 5.8 mph - N/A   Clear
9:56 PM 48.0 °F - 21.9 °F 36% 29.79 in 10.0 mi South 5.8 mph - N/A   Scattered Clouds
10:56 PM 48.0 °F - 23.0 °F 37% 29.76 in 10.0 mi SSE 8.1 mph - N/A   Clear
11:56 PM 48.0 °F - 23.0 °F 37% 29.73 in 10.0 mi South 10.4 mph - N/A   Partly Cloudy